GFSMW_con_mucape_048.txt.gz
CAPE
119 289 280 251 504 1095 907 612 444 241 59 262 77 2 0 0 0 0 0 0 0 0 0 0 0 0 0 0 0 0 0 0 0 0 0 0 0 0 0 0 0 0 5
319 493 585 641 742 1065 814 617 479 242 290 498 18 1 0 0 0 0 0 0 0 0 0 0 0 0 0 0 0 0 0 0 0 0 0 0 0 0 0 0 0 0 0
465 585 751 892 1353 1092 874 585 568 353 565 236 11 0 0 0 0 0 0 0 0 0 0 0 0 0 0 0 0 0 0 0 0 0 0 0 0 0 0 0 0 0 0
589 789 957 997 972 748 642 603 636 650 280 3 0 0 0 0 0 0 1 0 0 0 0 0 0 0 0 0 0 0 0 0 0 0 0 1 1 0 0 0 0 0 0
689 961 1040 946 708 761 810 843 665 48 0 0 0 0 47 19 9 9 0 5 0 0 0 0 0 0 0 0 3 4 1 5 9 6 7 3 1 0 0 0 0 0 0
985 822 1001 961 903 1119 787 172 0 0 0 0 12 27 49 2 0 0 0 0 0 0 0 2 0 0 0 0 0 0 0 5 15 12 14 17 8 0 0 0 0 0 0
751 531 593 435 274 96 53 3 0 0 0 0 5 10 0 0 0 0 0 2 0 0 0 0 0 0 0 0 0 0 0 16 39 22 20 20 0 0 0 0 2 0 0
328 102 68 5 5 11 0 0 0 0 0 14 6 0 0 0 1 2 10 6 0 0 0 0 0 0 0 0 0 0 0 15 49 25 26 17 0 14 3 7 0 0 0
139 0 0 0 0 0 0 0 0 1 3 5 1 0 0 0 6 12 7 0 0 0 0 0 0 0 0 0 0 1 11 33 7 3 5 9 2 9 0 0 0 5 0
184 2 0 0 1 0 0 0 12 6 2 0 0 0 1 3 12 5 0 0 0 0 0 0 0 0 0 0 0 4 11 0 8 7 9 15 5 5 0 0 0 3 13
189 17 0 1 2 8 12 8 8 6 7 0 4 11 7 8 7 0 0 0 0 0 0 0 0 0 0 0 2 5 1 0 0 6 8 3 2 0 1 1 6 4 7
160 14 1 6 7 19 5 6 7 5 6 4 19 17 12 9 6 0 0 0 0 0 0 0 0 0 0 2 2 0 0 4 6 6 0 0 0 0 6 0 0 0 0
126 32 17 11 13 7 2 4 0 8 10 52 25 7 5 1 1 0 0 0 0 0 0 0 0 0 0 0 0 0 6 3 3 0 1 1 0 0 0 0 0 0 0
68 47 29 29 11 7 1 0 0 2 45 23 17 18 0 1 3 0 0 0 0 0 0 0 0 3 0 0 2 7 0 1 1 2 12 0 0 0 0 0 0 0 0
4 20 90 50 28 0 0 0 0 20 34 9 22 30 1 6 0 0 0 0 0 0 0 0 4 1 0 0 0 2 1 0 0 0 0 0 0 0 0 0 0 0 0
1 4 37 24 0 3 0 0 1 25 23 50 44 17 1 0 0 0 0 0 0 0 0 1 0 0 0 0 1 0 0 0 0 0 0 0 0 0 0 0 0 0 0
0 3 0 0 4 4 0 0 0 19 18 41 19 0 0 0 0 0 0 0 0 0 1 1 0 0 0 0 0 0 0 0 0 0 0 0 0 0 0 0 0 0 0
0 0 4 10 2 1 0 0 4 7 15 14 16 0 0 0 0 0 0 0 0 0 0 0 0 0 0 0 0 0 0 0 0 0 0 0 0 0 0 0 0 0 0
0 0 0 0 0 0 0 0 2 16 17 9 1 0 0 0 0 0 0 0 0 0 0 0 0 0 0 0 0 0 0 0 0 0 0 0 0 0 0 0 0 0 0
0 0 0 0 0 0 0 0 2 7 3 0 0 0 0 0 0 0 0 0 0 0 0 0 0 0 0 0 0 0 0 0 0 0 0 0 0 0 0 0 0 0 0
0 0 0 0 0 0 1 9 14 8 0 0 0 0 0 0 0 0 0 0 0 1 0 0 0 0 0 0 0 0 0 0 0 0 0 0 0 0 0 0 0 0 0
0 0 0 0 0 5 8 17 6 0 0 0 0 0 0 0 0 0 0 0 0 0 0 0 0 0 0 0 0 0 0 0 0 0 0 0 0 0 0 0 0 0 0
0 0 0 0 13 15 8 2 0 0 0 0 0 0 0 0 0 0 0 0 0 0 0 0 0 0 0 0 0 0 0 0 0 0 0 0 0 0 0 0 0 0 0
0 0 8 3 3 0 0 0 0 0 0 0 0 0 0 0 0 0 0 0 0 0 0 0 0 0 0 0 0 0 0 0 0 0 0 0 0 0 0 0 0 0 0
0 1 3 6 0 0 0 0 0 0 0 0 0 0 0 0 0 0 0 0 0 0 0 0 0 0 0 0 0 0 0 0 0 0 0 0 0 0 0 0 0 0 0
10 6 0 0 0 0 0 0 0 0 0 0 0 0 0 0 0 0 0 0 0 0 0 0 0 0 0 0 0 0 0 0 0 0 0 0 0 0 0 0 0 0 0

GFSMW_con_mucape_051.txt.gz
CAPE
0 0 206 278 307 372 401 427 429 323 19 43 47 52 29 21 4 0 0 0 0 0 0 0 0 0 0 0 0 0 0 0 0 0 0 0 0 0 0 0 0 0 0
2 15 62 455 430 545 533 479 390 268 141 40 79 16 0 0 0 0 0 0 0 0 0 0 0 0 0 0 0 0 0 0 0 0 0 0 0 0 0 0 0 0 0
142 245 304 671 716 687 692 565 444 314 88 185 52 0 0 0 0 0 0 0 0 0 0 0 0 0 0 0 0 0 0 0 0 0 0 0 0 0 0 0 0 0 0
267 320 440 735 842 797 817 578 431 355 106 347 18 0 0 0 0 0 0 0 0 0 0 0 0 0 0 0 0 0 0 0 0 0 0 0 0 0 0 0 0 0 0
280 418 602 927 916 889 784 635 507 232 276 379 9 0 0 0 0 0 0 0 0 2 0 0 0 0 0 0 0 0 0 0 0 0 0 0 0 0 0 0 0 0 0
358 557 843 888 844 806 660 427 443 439 242 2 0 0 0 0 0 0 2 2 3 0 0 0 0 0 0 0 0 0 0 0 0 0 1 3 0 0 0 0 0 0 0
741 885 936 928 605 447 471 473 650 397 1 0 0 0 0 0 1 0 3 13 9 8 6 0 0 0 0 0 0 0 0 0 0 0 12 9 17 16 11 9 0 2 0
762 883 881 692 671 654 557 629 77 0 0 0 0 0 0 1 6 17 28 19 15 0 0 0 0 0 0 0 0 0 0 0 0 0 5 6 14 5 25 15 0 0 0
725 707 623 711 636 331 145 0 2 0 0 0 0 0 12 18 25 12 11 13 12 0 0 0 0 0 0 0 0 0 0 0 0 1 9 13 10 12 12 14 13 8 1
570 415 254 215 143 97 0 0 0 2 2 0 2 7 9 20 7 5 11 11 5 1 0 0 0 0 0 0 0 0 0 1 4 6 13 3 7 7 5 6 4 0 0
369 227 41 0 0 0 0 0 0 2 25 30 15 11 25 32 8 13 0 6 0 0 0 0 0 0 0 0 0 0 0 0 0 1 0 1 4 0 0 0 0 0 0
391 234 45 0 0 0 6 17 19 12 16 30 54 58 21 28 4 13 7 0 2 0 0 0 0 0 0 0 0 0 0 0 0 0 0 0 0 0 0 0 0 0 0
351 261 63 1 8 16 23 34 38 42 55 62 80 53 35 21 26 0 4 0 0 0 0 0 0 0 0 0 0 0 0 0 0 1 1 0 0 0 0 0 0 0 0
336 187 28 13 25 28 29 51 63 85 75 102 77 32 30 15 0 0 0 0 0 0 0 0 0 0 0 0 0 0 0 0 0 0 0 0 0 0 0 0 0 0 0
231 134 50 40 39 31 44 63 72 74 74 35 39 23 20 45 4 1 0 0 0 2 0 0 0 0 0 0 0 0 0 3 0 0 0 0 0 0 0 0 0 0 0
0 16 75 82 59 52 61 91 77 18 13 11 23 26 27 18 4 0 0 2 1 0 0 0 0 0 0 0 0 0 0 0 0 0 0 0 0 0 0 0 0 0 0
0 0 23 37 45 62 75 22 6 14 12 24 42 24 27 19 0 0 0 0 0 0 0 0 0 0 0 0 0 0 0 0 0 0 0 0 0 0 0 0 0 0 0
0 0 0 11 43 73 61 47 39 37 48 25 18 16 10 1 0 0 0 0 0 0 0 0 0 0 0 0 0 0 0 0 0 0 0 0 0 0 0 0 0 0 0
0 0 0 14 37 57 71 55 30 29 27 25 13 1 0 0 0 0 0 0 0 0 0 0 0 0 0 0 0 0 0 0 0 0 0 0 0 0 0 0 0 0 0
0 0 0 0 17 40 43 51 64 50 32 6 0 0 0 0 0 0 0 0 0 0 0 0 0 0 0 0 0 0 0 0 0 0 0 0 0 0 0 0 0 0 0
0 0 0 0 2 5 24 42 46 24 10 0 0 0 0 0 0 0 0 0 0 0 0 0 0 0 0 0 0 0 0 0 0 0 0 0 0 0 0 0 0 0 0
0 0 0 8 9 14 17 16 9 0 0 0 0 0 0 0 0 0 0 0 0 0 0 0 0 0 0 0 0 0 0 0 0 0 0 0 0 0 0 0 0 0 0
0 5 8 12 12 13 6 1 0 0 0 0 0 0 0 0 0 0 0 0 0 0 0 0 0 0 0 0 0 0 0 0 0 0 0 0 0 0 0 0 0 0 0
14 0 0 0 0 0 0 0 0 0 0 0 0 0 0 0 0 0 0 0 0 0 0 0 0 0 0 0 0 0 0 0 0 0 0 0 0 0 0 0 0 0 0
0 0 0 0 0 0 0 0 0 0 0 0 0 0 0 0 0 0 0 0 0 0 2 1 0 0 0 0 0 0 0 0 0 0 0 0 0 0 0 0 0 0 0
0 0 0 0 0 0 0 0 0 0 0 0 0 0 0 0 0 0 0 0 3 2 0 0 0 0 0 0 0 0 0 0 0 0 0 0 0 0 0 0 0 0 0

GFSMW_con_mucape_054.txt.gz
CAPE
32 15 76 180 238 290 249 330 407 437 384 266 133 46 46 21 10 4 0 0 0 0 0 0 0 0 0 0 0 0 0 0 0 0 0 0 0 0 0 0 0 0 0
0 35 133 210 303 330 312 362 449 487 439 221 21 42 71 22 22 6 0 0 0 0 0 0 0 0 0 0 0 0 0 0 0 0 0 0 0 0 0 0 0 0 0
24 90 142 251 320 366 386 452 419 423 347 96 35 66 46 1 0 0 0 0 0 0 0 0 0 0 0 0 0 0 0 0 0 0 0 0 0 0 0 0 0 0 0
0 96 245 320 338 369 458 556 582 466 320 175 95 107 0 0 0 0 0 0 0 0 0 0 0 0 0 0 0 0 0 0 0 0 0 0 0 0 0 0 0 0 0
84 146 373 354 347 444 566 614 573 504 339 210 138 11 0 0 0 0 0 0 0 0 0 0 0 0 0 0 0 0 0 0 0 0 0 0 0 0 0 0 0 0 0
132 177 465 575 611 660 656 699 667 554 343 174 391 18 0 0 0 0 0 0 0 0 1 1 0 1 0 0 0 0 0 0 0 0 0 0 0 0 0 0 0 0 0
153 359 660 710 785 818 854 778 634 431 165 350 484 6 0 0 0 0 0 0 2 9 9 4 2 0 0 2 1 0 0 0 0 0 0 0 0 4 9 0 0 0 0
302 537 666 836 899 952 870 621 459 330 365 360 33 0 0 1 0 4 9 12 11 0 0 2 0 0 0 0 0 0 0 0 0 0 0 0 0 6 8 5 0 0 0
540 691 731 818 961 784 513 385 367 568 236 0 1 0 12 17 21 24 0 16 3 1 1 5 1 1 0 0 0 0 0 0 0 0 0 3 7 14 13 23 21 9 0
717 818 934 959 715 582 369 514 538 627 1 0 4 23 44 26 43 40 36 42 8 19 5 0 2 0 0 0 0 0 0 0 0 0 0 0 0 0 5 1 2 0 0
679 799 872 814 739 541 310 145 0 0 4 12 28 46 51 54 52 29 65 59 1 3 0 8 0 0 0 0 0 0 0 0 0 0 0 0 0 1 1 2 0 0 0
519 428 484 644 647 390 206 1 1 3 5 6 13 32 62 83 69 73 46 0 10 16 0 0 0 0 0 0 0 0 0 0 0 0 0 0 0 0 0 0 0 0 0
477 392 320 288 166 47 4 0 6 17 16 28 35 52 76 86 79 61 38 28 6 0 0 0 0 0 0 0 0 0 0 0 0 0 0 0 0 0 0 0 0 0 0
436 430 405 285 188 33 17 30 23 40 64 61 59 57 95 66 38 14 2 15 7 0 0 0 0 0 0 0 0 0 0 0 0 0 0 0 0 0 0 0 0 0 0
442 442 324 181 137 64 45 49 38 65 74 75 116 103 75 53 37 4 13 31 0 0 0 0 0 0 0 0 0 0 0 0 0 0 0 0 0 0 0 0 0 0 0
0 247 294 134 68 59 53 43 42 74 95 93 69 51 39 30 23 7 15 11 0 0 0 0 0 0 0 0 0 0 0 0 0 0 0 0 0 0 0 0 0 0 0
13 8 16 40 78 64 60 78 69 87 74 53 48 46 51 39 34 9 0 0 0 0 0 0 0 0 0 0 0 0 0 0 0 0 0 0 0 0 0 0 0 0 0
0 2 24 48 74 86 86 68 62 57 51 50 58 64 51 37 19 2 0 0 0 0 0 0 0 0 0 0 0 0 0 0 0 0 0 0 0 0 0 0 0 0 0
0 0 0 4 42 46 39 46 62 58 53 60 65 60 34 7 0 0 0 0 0 0 0 0 0 0 0 0 0 0 0 0 0 0 0 0 0 0 0 0 0 0 0
0 0 0 0 0 0 15 48 71 58 61 52 40 23 0 0 0 0 0 0 0 0 0 0 0 0 0 0 0 0 0 0 0 0 0 0 0 0 0 0 0 0 0
0 0 0 0 1 9 25 39 36 32 23 23 5 0 0 0 0 0 0 0 0 0 0 0 0 0 0 0 0 0 0 0 0 0 0 0 0 0 0 0 0 0 0
0 0 2 9 18 24 21 13 7 8 4 0 0 0 0 0 0 0 0 0 0 0 0 0 0 0 0 0 0 0 0 0 0 0 0 0 0 0 0 0 0 0 0
0 7 11 15 10 11 13 0 1 0 0 0 0 0 0 0 0 0 0 0 0 0 0 0 0 0 0 0 0 0 0 0 0 0 0 0 0 0 0 0 0 0 0
7 14 15 0 0 2 2 0 0 0 0 0 0 0 0 0 0 0 0 0 0 0 0 0 0 0 0 0 0 0 0 0 0 0 0 0 0 0 0 0 0 0 0
8 8 0 0 0 0 0 0 0 0 0 0 0 0 0 0 0 0 0 0 0 0 0 0 0 0 0 0 0 0 0 0 0 0 0 0 0 0 0 0 0 0 0
0 0 0 0 0 0 0 0 0 0 0 0 0 0 0 0 0 0 0 0 0 1 8 3 0 0 0 0 0 0 0 0 0 0 0 0 0 0 0 0 0 0 0

GFSMW_con_mucape_057.txt.gz
CAPE
361 141 257 272 291 311 271 202 156 236 273 313 358 340 294 175 63 0 0 0 0 0 0 0 0 0 0 0 0 0 0 0 0 0 0 0 0 0 0 0 0 0 0
366 196 230 312 213 228 168 142 187 256 269 279 215 126 23 19 26 11 24 12 0 0 0 0 0 0 0 0 0 0 0 0 0 0 0 0 0 0 0 0 0 0 0
150 109 239 140 113 138 156 143 236 295 313 342 284 194 55 76 77 28 24 0 0 0 0 0 0 0 0 0 0 0 0 0 0 0 0 0 0 0 0 0 0 0 0
9 17 87 60 89 89 207 229 189 332 363 401 431 140 124 112 49 27 0 0 0 0 0 0 0 0 0 0 0 0 0 0 0 0 0 0 0 0 0 0 0 0 0
64 68 56 62 73 113 169 303 225 285 414 358 268 183 160 90 28 0 0 0 0 0 0 0 0 0 0 0 0 0 0 0 0 0 0 0 0 0 0 0 0 0 0
35 83 41 53 91 82 163 262 289 449 442 417 276 223 131 4 1 0 0 0 0 0 0 6 4 4 4 4 0 0 0 0 0 0 0 0 0 0 0 0 0 0 0
45 98 135 160 157 163 201 242 389 483 568 513 347 154 39 1 0 0 0 0 0 2 6 15 7 0 0 0 1 1 0 0 0 0 0 0 0 0 0 0 0 0 0
18 93 280 375 292 306 328 287 483 628 639 505 375 187 340 12 0 2 5 0 5 7 6 3 1 1 0 1 0 0 0 0 0 0 0 0 0 0 3 0 0 0 0
83 176 384 505 518 484 495 512 523 520 450 434 228 409 439 24 1 7 29 35 2 7 49 3 3 0 0 0 0 0 0 0 0 0 0 0 0 0 0 4 12 0 0
214 252 427 555 652 722 791 731 621 518 437 230 341 352 129 18 8 8 14 33 15 2 4 2 0 0 0 0 0 0 0 0 0 0 0 0 0 0 0 4 5 3 1
324 441 539 570 670 800 892 751 585 435 361 413 30 11 7 1 21 50 51 25 12 1 6 12 15 6 13 0 0 0 0 0 0 0 0 0 0 0 0 0 0 0 0
653 726 754 770 805 973 751 440 401 398 428 247 32 13 20 38 54 66 63 29 13 12 15 1 5 2 0 0 0 0 0 0 0 0 0 0 0 0 0 0 0 0 0
796 897 912 942 995 849 569 418 515 472 243 67 22 17 19 47 69 83 4 9 6 1 1 2 0 0 0 0 0 0 0 0 0 0 0 0 0 0 0 0 0 0 0
586 660 682 765 839 757 562 378 212 122 42 19 39 54 57 60 66 43 28 35 26 1 0 0 0 0 0 0 0 0 0 0 0 0 0 0 0 0 0 0 0 0 0
177 470 519 468 428 511 438 158 75 72 65 55 64 77 73 71 61 53 50 26 5 6 1 0 0 0 0 0 0 0 0 0 0 0 0 0 0 0 0 0 0 0 0
112 277 415 420 343 128 102 97 68 68 74 71 71 85 65 63 70 51 28 13 0 0 0 0 0 0 0 0 0 0 0 0 0 0 0 0 0 0 0 0 0 0 0
0 0 4 57 149 94 84 74 70 56 78 83 67 44 68 85 28 20 22 17 2 0 0 0 0 0 0 0 0 0 0 0 0 0 0 0 0 0 0 0 0 0 0
0 0 0 6 26 42 60 61 73 95 84 99 71 38 34 37 64 27 10 0 0 0 0 0 0 0 0 0 0 0 0 0 0 0 0 0 0 0 0 0 0 0 0
0 0 0 0 13 31 45 86 88 79 61 55 26 23 47 23 18 8 0 0 0 0 0 0 0 0 0 0 0 0 0 0 0 0 0 0 0 0 0 0 0 0 0
0 0 0 0 8 11 52 61 47 48 48 48 32 3 1 0 0 0 0 0 0 0 0 0 0 0 0 0 0 0 0 0 0 0 0 0 0 0 0 0 0 0 0
0 0 0 0 0 0 2 11 23 25 10 4 4 0 0 0 0 0 0 0 0 0 0 0 0 0 0 0 0 0 0 0 0 0 0 0 0 0 0 0 0 0 0
0 0 0 0 0 4 12 16 17 3 0 0 0 0 0 0 0 0 0 0 0 0 0 0 0 0 0 0 0 0 0 0 0 0 0 0 0 0 0 0 0 0 0
0 0 3 1 4 5 6 0 0 0 0 0 0 0 0 0 0 0 0 0 0 0 0 0 0 0 0 0 0 0 0 0 0 0 0 0 0 0 0 0 0 0 0
0 3 6 12 12 7 1 2 1 0 0 0 0 0 0 0 0 0 0 0 0 0 0 0 0 0 0 0 0 0 0 0 0 0 0 0 0 0 0 0 0 0 0
7 12 17 12 4 5 3 0 0 0 0 0 0 0 0 0 0 0 0 0 0 0 0 0 0 0 0 1 4 2 0 0 0 0 0 0 0 0 0 0 0 0 0
2 3 3 0 0 0 0 0 0 0 0 0 0 0 0 0 0 0 0 0 0 0 0 0 0 0 0 2 3 4 0 0 0 0 0 0 0 0 0 0 0 0 0

GFSMW_con_mucape_060.txt.gz
CAPE
185 116 63 137 35 100 289 387 431 165 25 46 115 234 341 332 345 301 96 28 45 43 4 0 0 0 0 0 0 0 0 0 0 0 0 0 0 0 0 0 0 0 0
304 245 217 219 134 166 380 388 336 297 107 133 194 247 335 379 336 203 77 34 48 28 0 0 0 0 0 0 0 0 0 0 0 0 0 0 0 0 0 0 0 0 0
452 390 306 180 236 268 401 381 334 265 162 188 258 319 310 226 155 65 76 65 68 1 0 0 0 0 0 0 0 0 0 0 0 0 0 0 0 0 0 0 0 0 0
522 369 321 174 277 282 282 327 317 206 97 185 284 303 258 163 63 51 43 58 8 0 0 0 0 0 0 0 0 0 0 0 0 0 0 0 0 0 0 0 0 0 0
550 300 251 191 123 310 226 225 286 152 117 204 242 277 287 202 56 35 47 33 0 0 0 0 0 0 0 0 4 0 0 0 0 0 0 0 0 0 0 0 0 0 0
453 497 55 75 62 201 122 115 190 165 115 188 231 303 281 60 59 66 33 2 0 0 0 0 0 1 1 3 1 0 0 0 0 0 0 0 0 0 0 0 0 0 0
311 531 44 36 47 43 76 50 55 73 139 156 247 326 177 114 80 12 0 1 0 0 0 0 2 5 11 5 0 5 0 0 0 0 0 0 0 0 0 0 0 0 0
195 247 63 39 66 64 154 39 46 42 148 98 211 293 256 210 65 0 5 6 7 0 0 6 0 5 25 10 6 0 0 1 0 0 0 0 0 0 0 0 0 0 0
12 96 121 83 103 210 179 61 124 113 196 242 286 309 360 176 122 1 4 13 5 2 10 4 7 0 0 14 6 3 0 0 0 0 0 0 0 0 0 0 0 0 0
52 57 73 153 148 179 146 141 220 266 387 397 436 456 351 238 457 154 13 29 30 24 54 22 14 17 6 1 2 0 0 0 0 0 0 0 0 0 0 0 0 0 0
52 71 133 237 303 325 351 347 391 543 594 583 450 369 322 338 400 233 58 27 14 39 25 17 3 0 1 0 0 0 0 0 0 0 0 0 0 0 0 0 0 0 0
122 224 370 365 353 442 510 589 645 746 649 574 447 278 375 345 202 107 42 22 39 4 1 18 3 22 0 0 0 0 0 0 0 0 0 0 0 0 0 0 0 0 0
316 428 434 473 488 500 597 695 813 718 595 510 333 333 280 82 29 45 46 57 55 3 5 0 1 8 1 0 0 0 0 0 0 0 0 0 0 0 0 0 0 0 0
328 586 636 636 633 644 638 742 674 433 399 380 318 223 59 46 29 32 62 50 28 7 3 4 9 10 0 0 0 0 0 0 0 0 0 0 0 0 0 0 0 0 0
4 395 607 752 827 800 784 611 452 395 376 206 290 95 77 26 0 37 14 2 2 19 6 15 0 0 0 0 0 0 0 0 0 0 0 0 0 0 0 0 0 0 0
20 20 213 395 448 421 429 390 312 206 125 59 64 49 69 49 63 32 44 0 2 2 11 0 0 0 0 0 0 0 0 0 0 0 0 0 0 0 0 0 0 0 0
0 0 12 56 133 183 173 99 41 48 57 46 71 85 71 54 60 20 26 27 13 0 0 0 0 0 0 0 0 0 0 0 0 0 0 0 0 0 0 0 0 0 0
0 0 0 0 0 2 1 0 0 20 57 67 85 55 41 35 68 27 2 18 0 0 0 0 0 0 0 0 0 0 0 0 0 0 0 0 0 0 0 0 0 0 0
0 0 0 0 0 0 0 0 14 38 48 44 33 44 39 15 28 18 1 0 0 0 0 0 0 0 0 0 0 0 0 0 0 0 0 0 0 0 0 0 0 0 0
0 0 0 0 0 0 0 36 17 55 47 36 30 35 25 0 0 0 0 0 0 0 0 0 0 0 0 0 0 0 0 0 0 0 0 0 0 0 0 0 0 0 0
0 0 0 0 0 0 0 11 11 23 11 14 6 0 0 0 0 0 0 0 0 0 0 0 0 0 0 0 0 0 0 0 0 0 0 0 0 0 0 0 0 0 0
0 0 0 0 0 0 0 0 5 7 4 0 0 0 0 0 0 0 0 0 0 0 0 0 0 0 0 0 0 0 0 0 7 3 0 0 0 0 0 0 0 0 0
0 0 0 0 0 0 0 0 0 0 0 0 0 0 0 0 0 0 0 0 0 0 0 0 0 0 0 0 0 0 0 1 9 5 0 0 0 0 0 0 0 0 0
0 0 0 0 0 0 0 0 0 0 0 0 0 0 0 0 0 0 0 0 0 0 0 0 0 0 0 0 0 0 0 0 10 7 0 0 0 0 0 0 0 0 0
0 0 0 1 1 2 0 0 0 0 0 0 0 0 0 0 0 0 0 0 0 0 0 0 0 0 0 0 0 0 0 3 1 5 1 2 0 0 0 0 0 0 0
1 1 0 0 12 8 0 0 0 0 0 0 0 0 0 0 0 0 0 0 0 0 0 0 0 0 0 0 0 0 0 23 13 5 0 0 0 0 0 0 0 0 0

GFSMW_con_mucape_063.txt.gz
CAPE
204 149 121 86 61 156 186 256 283 364 365 18 0 0 75 230 350 288 197 139 82 38 62 43 9 0 0 0 0 0 0 0 0 0 0 0 0 0 0 0 0 0 0
287 197 187 213 86 86 184 261 348 419 159 51 18 21 116 217 278 216 161 80 26 33 33 2 0 0 0 0 0 0 0 0 0 0 0 0 0 0 0 0 0 0 0
480 301 183 224 173 100 162 187 396 481 378 105 36 76 151 232 280 216 130 56 18 4 17 0 0 0 0 0 0 0 0 0 0 0 0 0 0 0 0 0 0 0 0
471 463 296 249 250 168 151 164 331 467 511 352 182 148 161 221 293 193 53 40 7 12 20 0 0 0 0 0 0 0 1 2 0 2 0 0 0 0 0 0 0 0 0
515 564 453 385 283 206 161 184 373 384 332 287 290 167 222 252 187 104 37 11 8 34 0 0 0 0 0 0 0 2 0 1 1 0 1 0 0 0 0 0 0 0 0
434 458 509 304 238 227 174 204 317 304 367 284 234 158 228 187 186 127 34 7 54 28 0 0 0 0 0 3 4 6 1 7 3 2 0 0 0 0 0 0 0 0 0
316 411 430 561 260 199 129 193 303 278 270 375 269 148 207 260 207 143 61 51 79 13 12 1 2 1 5 6 20 0 0 8 1 0 0 0 0 0 0 0 0 0 0
73 332 352 405 577 130 98 96 141 223 109 238 99 95 178 170 143 166 151 109 39 9 5 4 7 10 23 12 11 0 0 6 0 0 0 0 0 0 0 0 0 0 0
0 28 283 310 390 536 95 178 171 125 64 89 82 76 85 118 172 224 99 16 1 3 4 7 14 16 1 1 10 0 0 0 0 0 0 0 0 0 0 0 2 0 0
13 9 15 67 199 324 186 176 208 202 138 80 203 278 309 240 367 302 120 2 0 10 17 27 10 17 2 8 9 6 0 0 0 0 0 0 0 0 0 0 10 22 0
10 37 78 127 154 236 253 287 305 304 213 193 322 312 329 275 315 247 116 68 17 29 4 0 3 0 8 10 1 0 1 0 0 0 0 0 0 0 0 0 15 8 30
48 89 200 290 375 392 414 436 374 315 301 348 543 479 395 358 401 170 172 108 61 57 19 3 14 0 5 4 6 0 0 0 0 0 0 0 0 0 0 0 0 0 0
45 151 209 306 416 473 481 363 412 471 549 563 480 341 253 152 119 95 119 87 41 19 39 33 0 0 0 4 0 0 0 0 0 0 0 0 0 0 0 0 0 0 0
1 187 329 315 320 360 364 435 575 690 619 539 333 203 159 100 92 109 56 57 0 25 6 0 1 2 2 0 0 0 0 0 0 0 0 0 0 0 0 0 0 0 0
0 0 226 494 588 622 631 600 592 548 398 250 161 74 59 50 70 37 42 1 8 10 10 1 2 0 0 0 0 0 0 0 0 0 0 0 0 0 0 0 0 0 0
0 0 10 191 461 575 532 444 472 350 261 191 85 39 16 2 19 15 2 1 3 1 0 0 0 0 0 0 0 0 0 0 0 0 0 0 0 0 0 0 0 0 0
0 2 29 67 152 182 183 162 107 77 52 35 1 4 5 9 28 23 0 1 10 11 0 0 0 0 0 0 0 0 0 0 0 0 0 0 0 0 0 0 0 0 0
0 0 0 0 0 0 0 0 0 0 0 1 4 7 13 13 7 10 3 1 0 0 0 0 0 0 0 0 0 0 0 0 0 0 0 0 0 0 0 0 0 0 0
0 0 0 0 0 0 0 0 0 0 1 3 4 4 22 9 0 6 4 0 0 0 0 0 0 0 0 0 0 0 0 0 0 0 0 0 0 0 0 0 0 0 0
0 0 0 0 0 0 0 0 0 3 3 7 11 3 14 12 0 0 0 0 0 0 0 0 0 0 0 0 0 0 0 0 0 0 0 0 5 3 0 0 0 0 0
0 0 0 0 0 0 0 0 0 1 2 4 3 3 0 0 0 0 0 0 0 0 0 0 0 0 0 0 0 0 0 0 0 0 6 1 1 10 9 1 0 0 0
0 0 0 0 0 0 0 0 0 0 2 2 0 0 0 0 0 0 0 0 0 0 0 0 0 0 0 0 0 0 0 0 0 0 35 40 6 0 9 0 0 0 0
0 0 0 0 0 0 0 0 1 0 0 0 0 0 0 0 0 0 0 0 0 0 0 0 0 0 0 0 0 0 0 0 0 4 16 2 2 1 5 1 0 0 0
0 0 0 0 0 0 0 1 0 0 0 0 0 0 0 0 0 0 0 0 0 0 0 0 0 0 0 0 0 0 0 0 0 0 38 0 0 0 0 0 0 0 0
0 0 0 0 0 0 1 0 0 0 0 0 0 0 0 0 0 0 0 0 0 0 0 0 0 0 0 0 0 0 0 0 0 0 0 37 27 0 0 0 0 0 0
0 0 0 0 0 1 5 3 0 0 0 0 0 0 0 0 0 0 0 0 0 0 0 0 0 0 0 0 0 0 0 0 0 0 21 26 40 15 0 0 0 0 0

GFSMW_con_mucape_069.txt.gz
CAPE
209 253 183 107 18 16 0 66 265 376 487 424 280 89 39 75 191 515 600 686 604 455 384 132 0 13 0 0 0 0 0 0 0 0 0 0 0 0 0 0 0 0 0
277 272 299 164 88 90 213 249 274 459 513 396 219 49 40 54 173 728 704 698 540 383 253 78 0 6 0 2 0 0 0 0 0 0 0 0 0 0 0 0 0 0 0
392 323 282 438 204 242 321 319 370 367 533 468 286 102 84 103 232 666 597 542 468 394 258 57 7 1 13 0 0 0 0 0 0 0 0 0 0 0 0 0 0 0 0
445 462 264 341 540 547 545 588 543 514 705 693 401 208 123 150 325 538 484 508 341 224 29 68 34 3 9 3 0 0 0 0 0 1 0 0 0 0 0 0 0 0 0
635 538 599 344 379 561 642 739 654 756 752 985 683 434 312 333 472 723 676 593 174 56 66 50 12 3 14 6 1 0 0 0 5 0 0 2 1 0 0 0 0 0 0
603 485 488 600 534 1188 1064 700 723 857 882 990 1036 885 678 623 529 932 689 520 117 14 53 11 5 42 21 37 13 0 0 5 13 0 7 5 0 0 0 0 0 0 0
753 761 483 474 591 779 952 993 843 769 935 1129 1248 1283 1247 1063 1180 904 589 395 42 19 48 48 53 70 37 46 9 2 1 13 6 0 0 1 0 0 0 0 0 0 0
341 866 927 798 656 707 1042 1260 1112 993 845 1105 1527 1558 1440 1307 1522 1151 766 344 36 31 46 81 74 78 38 45 15 0 2 3 1 0 0 0 1 0 0 0 0 0 0
305 409 895 1095 1187 1049 1270 1939 1401 1230 1122 1368 1740 1513 1694 1400 1166 1026 567 215 44 59 64 70 73 9 27 13 27 9 1 0 0 0 1 0 0 0 0 0 0 0 0
234 412 506 903 1241 1413 1451 1709 1477 1223 1213 1344 1469 1367 1387 1043 725 289 291 93 113 57 112 84 39 3 12 25 51 2 0 0 0 0 1 0 0 0 0 0 0 0 0
341 282 334 581 1017 1340 1489 1587 1545 1414 1205 1272 1590 1416 1148 776 676 356 289 152 85 83 89 14 0 32 27 24 1 0 0 0 0 0 0 0 0 0 0 0 0 3 5
159 453 451 358 442 754 1083 1296 1476 1494 1311 1143 1281 1267 875 803 487 527 202 77 78 56 39 108 74 28 0 0 1 0 0 0 0 0 0 0 0 0 0 10 8 13 19
115 358 630 741 709 741 849 975 1075 1097 1063 1020 1092 808 662 616 372 496 314 92 8 11 21 38 11 1 0 0 0 2 0 0 0 0 0 0 3 16 15 16 14 22 12
102 264 609 849 1107 1107 1037 1035 1111 1028 861 850 778 629 647 429 379 449 291 55 41 38 38 5 6 0 0 1 0 2 1 0 0 0 1 12 8 10 22 19 28 25 39
5 143 573 931 1176 1454 1321 869 837 634 544 546 625 746 476 417 249 177 125 56 68 41 4 8 6 1 0 3 7 0 0 0 0 18 12 28 23 1 2 5 6 13 14
109 36 344 1131 1282 1183 967 573 339 404 471 582 476 286 245 168 120 96 98 98 41 0 1 2 0 0 3 3 0 0 0 0 0 1 8 10 4 3 2 2 1 0 3
159 175 551 980 790 508 205 256 409 435 393 216 206 134 117 114 125 109 44 0 1 3 2 5 2 0 0 0 0 0 0 0 0 0 4 4 3 9 35 34 13 7 11
83 191 267 185 138 69 288 301 208 167 114 80 54 27 10 0 0 0 0 1 5 1 0 0 0 0 0 0 0 0 0 0 0 0 2 15 25 35 32 49 63 55 57
0 0 0 0 0 0 0 0 0 0 0 0 0 0 0 0 0 0 2 4 3 0 0 0 0 0 0 0 0 0 0 0 0 0 0 2 7 2 0 2 37 54 47
0 0 0 0 0 0 0 0 0 0 0 0 0 0 0 0 0 0 0 0 0 0 0 0 0 0 0 0 0 0 0 0 0 0 0 0 0 0 0 0 33 3 44
0 0 0 0 0 0 0 0 0 0 0 0 0 1 1 0 0 0 0 0 0 0 0 0 0 0 0 0 0 0 0 0 0 0 0 0 0 0 0 0 0 2 12
0 0 0 0 0 0 0 0 0 0 0 0 0 0 0 0 0 0 0 0 0 0 0 0 0 0 0 0 0 0 0 0 0 0 0 0 0 0 0 0 0 0 3
0 0 0 0 0 0 0 0 0 0 0 0 0 0 0 0 0 0 0 0 0 0 0 0 0 0 0 0 0 0 0 0 0 0 0 0 0 0 0 0 1 2 39
0 0 0 0 0 0 0 0 0 0 0 0 0 0 0 0 0 0 0 0 0 0 0 0 0 0 0 0 0 0 0 0 0 0 0 0 0 0 0 6 10 24 54
0 0 0 0 0 0 0 0 0 0 0 0 0 0 0 0 0 0 0 0 0 0 0 0 0 0 0 0 0 0 0 0 0 0 0 0 0 0 0 29 21 88 97
0 0 0 0 0 0 0 0 0 0 0 0 0 0 0 0 0 0 0 0 0 0 0 0 0 0 0 0 0 0 0 0 0 0 0 0 0 0 0 0 0 1 28

GFSMW_con_mucape_072.txt.gz
CAPE
195 87 67 48 0 0 0 0 0 0 15 69 44 66 72 31 59 138 337 433 482 459 290 271 125 20 0 7 8 4 0 0 0 0 0 0 0 0 0 0 0 0 0
189 140 44 8 0 0 0 0 0 117 229 218 130 22 0 0 0 134 418 494 531 480 359 344 53 24 0 0 0 4 0 2 0 0 0 0 0 0 0 0 0 0 0
208 185 101 20 0 0 0 0 111 324 325 291 193 56 10 19 10 493 531 494 521 504 308 241 55 21 6 0 2 3 2 3 0 0 0 0 0 0 0 0 0 0 0
261 230 208 117 10 0 4 118 202 380 391 345 149 53 23 18 52 463 556 498 444 439 316 226 127 21 51 32 5 10 23 5 0 0 0 1 7 0 0 0 0 0 0
184 277 257 256 125 147 222 307 309 311 227 365 422 176 84 30 44 189 476 408 322 573 361 179 60 43 21 5 7 6 16 15 0 0 0 1 4 0 0 0 0 0 0
457 398 272 249 415 328 448 656 582 449 461 570 361 594 207 296 324 656 506 421 274 211 257 57 35 44 3 4 22 4 33 8 0 0 0 6 8 0 0 0 0 0 0
639 522 520 347 271 456 618 814 786 585 612 916 654 691 849 359 467 655 507 453 295 240 50 7 17 47 35 38 34 38 2 40 14 1 0 1 0 0 0 0 0 0 0
650 503 372 666 486 490 787 793 775 746 751 926 1089 1057 929 984 668 810 626 411 325 271 168 21 13 50 66 91 33 6 0 4 17 17 0 0 0 0 0 0 0 0 0
322 580 692 453 646 686 881 1004 889 780 733 1020 1117 1275 1291 1259 1126 1040 864 543 464 381 246 10 53 81 96 68 27 0 0 0 17 16 0 0 0 0 0 0 0 0 0
268 388 482 936 594 703 928 1154 1086 1104 983 957 1141 1306 1429 1415 1319 1070 816 620 457 224 60 72 71 99 91 9 1 0 3 14 17 14 0 0 0 0 0 0 0 0 0
284 293 447 618 1121 973 736 1288 1466 1375 1267 1165 1218 1355 1419 1185 1153 1071 638 494 174 107 115 118 171 54 10 25 16 0 0 0 0 0 0 0 0 0 0 0 0 0 0
110 329 337 381 543 1333 1481 1377 1513 1517 1407 1192 1360 1350 1161 984 917 839 563 247 178 136 255 172 56 16 13 18 2 0 0 1 0 0 0 0 0 0 0 0 0 0 0
52 200 488 457 457 626 865 1383 1666 1593 1521 1247 1168 934 1071 845 605 641 591 278 290 162 29 26 10 15 19 5 5 1 0 0 0 0 0 0 0 0 2 4 2 1 1
1 113 349 560 686 787 883 1061 1143 1140 1136 1019 1024 1023 1073 649 672 459 475 330 269 221 54 44 44 35 24 10 9 0 9 12 5 1 0 0 0 1 0 0 0 0 0
2 2 104 677 934 1095 981 929 958 978 958 892 812 701 636 480 310 303 308 253 288 80 88 28 53 19 11 3 0 0 9 4 0 0 0 6 11 9 3 1 0 0 1
86 37 7 921 1214 1288 1228 1068 949 932 850 792 677 714 502 295 198 168 105 64 58 71 56 26 11 0 0 1 0 0 0 0 0 0 0 0 0 0 0 2 10 8 14
111 113 210 1255 1020 995 1082 990 651 607 687 480 379 328 252 151 63 53 75 58 67 47 0 2 3 4 0 0 0 0 0 0 0 0 0 0 0 0 0 0 0 0 2
83 195 777 801 614 619 507 295 206 113 246 263 311 118 68 43 28 12 2 0 0 0 0 3 2 0 0 0 0 0 0 0 0 0 0 0 0 0 0 0 0 0 0
45 129 199 183 82 31 2 16 175 57 10 7 10 4 0 0 0 0 0 0 5 2 2 0 0 0 0 0 0 0 0 0 0 0 0 0 0 0 0 0 0 0 0
0 0 0 0 0 0 0 0 0 0 0 0 0 0 0 0 0 0 0 0 0 0 0 0 0 0 0 0 0 0 0 0 0 0 0 0 0 0 0 0 0 0 0
0 0 0 0 0 0 0 0 0 0 0 0 0 0 0 0 0 0 0 0 0 0 0 0 0 0 0 0 0 0 0 0 0 0 0 0 0 0 0 0 0 0 0
0 0 0 0 0 0 0 0 0 0 0 0 0 0 0 0 0 0 0 0 0 0 0 0 0 0 0 0 0 0 0 0 0 0 0 0 0 0 0 0 0 0 0
0 0 0 0 0 0 0 0 0 0 0 0 0 0 0 0 0 0 0 0 0 0 0 0 0 0 0 0 0 0 0 0 0 0 0 0 0 0 0 0 0 0 0
0 0 0 0 0 0 0 0 0 0 0 0 0 0 0 0 0 0 0 0 0 0 0 0 0 0 0 0 0 0 0 0 0 0 0 0 0 0 0 0 0 0 0
0 0 0 0 0 0 0 0 0 0 0 0 0 0 0 0 0 0 0 0 0 0 0 0 0 0 0 0 0 0 0 0 0 0 0 0 0 0 0 0 0 0 0
0 0 0 0 0 0 0 0 0 0 0 0 0 0 0 0 0 0 0 0 0 0 0 0 0 0 0 0 0 0 0 0 0 0 0 0 0 0 0 0 0 0 0

GFSMW_con_mucape_075.txt.gz
CAPE
80 0 0 0 0 0 0 0 0 0 0 0 0 0 7 0 0 0 0 55 226 224 214 156 69 31 10 13 0 7 5 0 0 0 0 0 0 0 0 0 0 0 0
169 30 0 0 0 0 0 0 0 0 0 0 0 0 0 0 0 0 98 137 222 342 267 192 113 73 25 5 0 0 0 0 0 0 0 0 0 0 0 0 0 0 0
135 74 8 0 0 0 0 0 0 0 0 0 0 0 0 0 0 3 110 163 220 372 364 239 169 164 57 21 0 1 0 0 0 0 0 0 0 0 0 0 0 0 0
92 65 51 0 0 0 0 0 0 0 0 0 0 0 0 0 0 0 28 192 268 338 318 303 239 158 75 3 0 3 26 19 7 5 0 0 0 0 0 0 0 0 0
74 69 95 5 0 0 0 0 0 11 13 28 29 20 14 0 0 66 163 207 260 349 415 345 210 162 68 4 12 34 8 11 4 0 8 2 0 0 0 0 0 0 0
105 82 140 87 2 0 0 0 22 31 44 63 61 113 28 3 0 76 261 285 294 380 406 254 255 191 91 33 27 8 28 8 4 0 2 0 2 0 0 0 0 0 0
207 158 141 104 106 7 4 4 15 50 90 164 129 158 81 30 24 9 294 340 381 296 260 198 178 220 127 62 68 40 27 38 12 0 0 0 0 0 0 0 0 0 0
236 284 208 199 157 94 67 32 37 122 131 236 242 193 220 145 32 57 176 302 389 369 194 213 199 66 25 45 72 51 49 16 0 0 0 0 0 0 0 0 0 0 0
309 331 306 329 294 280 167 159 316 219 255 347 492 396 301 380 327 48 293 377 380 406 372 236 172 94 38 49 158 70 69 18 1 0 0 0 0 0 0 0 0 0 0
199 440 387 344 343 326 339 285 337 544 470 359 597 722 644 439 715 590 354 463 435 372 333 304 262 85 106 178 15 64 10 8 2 0 4 2 0 0 0 0 0 0 0
47 99 157 352 439 389 439 383 394 396 513 514 437 766 808 781 664 875 783 786 408 366 359 198 58 69 120 97 9 20 7 17 5 9 3 3 0 4 0 0 0 0 0
5 60 94 179 436 473 558 487 518 554 706 629 516 709 825 944 691 613 496 569 339 377 316 155 112 99 72 20 0 0 13 12 5 0 0 0 0 0 0 0 0 0 0
20 38 66 86 113 490 597 676 767 724 564 526 758 844 720 717 550 483 503 455 361 226 122 127 72 31 21 19 12 5 20 2 4 0 2 6 0 0 0 0 0 1 3
0 86 94 104 120 511 833 967 1013 843 817 890 938 970 794 714 634 532 498 304 211 178 93 53 58 36 14 16 28 20 10 0 0 1 9 2 0 0 0 3 6 7 3
1 0 73 151 426 435 616 1155 1267 1135 1077 1076 981 838 814 779 520 516 282 192 155 116 64 91 21 5 15 22 20 8 0 0 0 2 0 0 0 3 5 3 1 0 2
0 13 50 371 469 518 534 597 722 836 882 871 780 779 786 669 538 388 200 74 78 95 61 17 7 15 13 2 0 0 0 0 0 0 0 1 5 2 0 0 0 0 0
0 80 742 658 565 618 624 651 663 737 797 774 606 406 245 182 160 62 56 53 65 40 35 10 8 3 0 0 0 0 0 0 0 0 0 0 0 0 0 0 0 0 0
7 514 710 880 886 876 868 818 766 734 526 463 356 541 300 172 61 49 31 13 9 3 0 0 0 0 0 0 0 0 0 0 0 0 0 0 0 0 0 0 0 0 0
63 515 706 824 815 875 778 616 482 240 19 2 51 46 98 28 3 0 0 0 0 0 0 0 0 0 0 0 0 0 0 0 0 0 0 0 0 0 0 0 0 0 0
101 140 201 297 364 361 215 99 0 0 21 5 3 0 0 0 0 0 0 0 0 0 0 0 0 0 0 0 0 0 0 0 0 0 0 0 0 0 0 0 0 0 0
17 27 15 15 10 0 0 0 0 0 0 0 0 0 0 0 0 0 0 0 0 0 0 0 0 0 0 0 0 0 0 0 0 0 0 0 0 0 0 0 0 0 0
0 0 0 0 0 0 0 0 0 0 0 0 0 0 0 0 0 0 0 0 0 0 0 0 0 0 0 0 0 0 0 0 0 0 0 0 0 0 0 0 0 0 0
0 0 0 0 0 0 0 0 0 0 0 0 0 0 0 0 0 0 0 0 0 0 0 0 0 0 0 0 0 0 0 0 0 0 0 0 0 0 0 0 0 0 0
0 0 0 0 0 0 0 0 0 0 0 0 0 0 0 0 0 0 0 0 0 0 0 0 0 0 0 0 0 0 0 0 0 0 0 0 0 0 0 0 0 0 0
0 0 0 0 0 0 0 0 0 0 0 0 0 0 0 0 0 0 0 0 0 0 0 0 0 0 0 0 0 0 0 0 0 0 0 0 0 0 0 0 0 0 0
0 0 0 0 0 0 0 0 0 0 0 0 0 0 0 0 1 0 0 0 0 0 0 0 0 0 0 0 0 0 0 0 0 0 0 0 0 0 0 0 0 0 0

GFSMW_con_mucape_078.txt.gz
CAPE
0 0 0 0 0 0 5 3 2 3 3 9 2 12 9 1 0 0 2 12 0 64 79 89 38 32 15 0 0 0 0 0 0 0 0 0 0 0 0 0 0 0 0
15 0 0 0 6 0 0 0 4 9 7 7 0 0 0 0 0 0 0 0 7 29 67 27 33 38 41 4 0 0 0 0 1 0 0 0 0 0 0 0 0 0 0
31 0 0 0 0 0 0 0 0 0 0 0 0 0 0 0 0 0 0 0 1 42 44 35 57 74 48 35 16 0 0 8 14 7 8 0 0 0 0 0 0 0 0
77 38 0 0 0 0 0 0 0 0 0 0 0 0 0 0 0 0 0 0 0 18 76 73 108 123 98 64 46 28 15 12 14 5 7 4 1 2 0 0 0 0 0
93 41 0 0 0 0 0 0 0 0 0 0 0 0 0 0 0 0 0 3 37 53 79 113 164 128 134 154 119 55 31 25 28 0 1 15 0 0 0 0 0 0 0
178 72 2 11 0 0 0 0 0 0 0 0 0 0 0 0 0 1 0 0 42 88 109 123 153 230 167 150 106 70 22 27 24 5 21 1 3 0 0 0 0 0 0
232 153 16 105 5 0 0 0 0 0 0 0 0 0 0 0 1 2 0 4 22 55 119 185 274 287 244 183 129 70 29 54 55 47 28 1 0 0 1 0 0 0 0
253 222 198 66 122 50 2 0 0 0 0 25 25 14 5 3 18 30 16 15 56 88 110 193 251 339 226 177 224 119 71 83 35 35 0 4 3 1 2 0 0 0 0
249 231 280 300 191 78 28 13 0 0 18 34 73 130 108 60 140 163 67 50 101 105 143 243 246 223 186 209 258 91 42 55 66 29 18 30 4 8 3 0 0 0 0
239 241 270 380 398 254 131 73 28 15 5 46 91 134 172 198 154 218 156 74 103 181 230 242 168 156 167 134 34 51 55 87 45 22 25 2 18 17 13 16 0 2 0
134 197 248 320 435 433 298 219 133 140 106 88 92 194 224 261 310 197 159 139 116 200 225 98 293 193 129 66 44 20 13 1 6 18 9 15 19 18 11 4 0 0 0
76 111 167 204 256 337 363 362 261 202 210 162 189 228 268 311 364 363 196 201 164 33 0 15 195 137 83 52 47 24 0 5 2 8 5 1 15 12 1 0 0 0 0
0 0 29 73 116 200 283 363 378 384 339 428 462 463 430 468 582 471 393 218 150 31 29 192 184 119 46 61 32 17 0 0 3 1 7 5 0 0 12 2 0 0 0
31 9 9 65 117 185 315 402 420 469 484 421 479 503 600 527 567 443 414 395 254 157 160 136 127 104 55 39 36 0 0 0 17 15 4 0 0 0 0 0 0 0 0
20 13 9 27 127 212 317 436 466 511 508 618 553 508 486 699 760 660 608 258 237 175 380 94 79 33 37 4 0 38 7 12 9 0 0 0 0 0 0 0 0 0 0
1 0 0 108 256 239 325 345 505 564 626 830 782 736 834 857 680 482 354 233 257 159 126 48 31 38 46 29 2 12 13 10 0 0 0 0 0 0 0 0 1 0 0
0 4 6 76 261 445 480 521 616 788 949 888 687 637 434 235 259 299 196 204 126 81 62 54 50 36 11 16 13 11 0 0 0 0 0 0 0 0 0 0 0 0 0
1 148 167 104 162 179 290 479 633 665 572 528 483 424 379 176 372 186 106 54 47 49 42 5 8 6 5 2 1 2 4 0 0 0 0 0 0 0 0 0 0 0 0
85 221 238 226 220 252 328 429 527 538 486 451 410 300 114 158 210 102 54 35 6 3 2 1 0 0 0 0 0 0 0 0 0 0 0 0 0 0 0 0 0 0 0
171 190 298 413 485 478 587 650 719 694 493 148 0 3 0 21 3 4 4 1 0 0 0 0 0 0 0 0 0 0 0 0 0 0 0 0 0 0 0 0 0 0 0
197 268 352 417 477 490 460 424 315 119 0 0 0 2 1 2 2 2 0 0 0 0 0 0 0 0 0 0 0 0 0 0 0 0 0 0 0 0 0 0 0 0 0
89 129 127 108 77 61 23 0 0 0 0 0 1 0 1 1 0 0 0 0 0 0 0 0 0 0 0 0 0 0 0 0 0 0 0 0 0 0 0 0 0 0 0
33 42 24 8 3 0 0 0 0 0 0 0 0 0 0 0 0 0 0 0 0 0 0 0 0 0 1 0 0 0 0 0 0 0 0 0 0 0 0 0 0 0 0
2 2 0 0 0 0 0 0 0 0 0 0 0 0 0 0 0 0 0 0 0 0 0 0 0 0 0 0 0 0 0 0 0 0 0 0 0 0 0 0 0 0 0
0 0 0 0 0 0 0 0 0 0 0 0 0 0 0 0 0 0 0 0 1 0 0 0 0 0 0 0 0 0 0 0 0 0 0 0 0 0 0 0 0 0 0
0 0 0 6 3 2 0 0 0 0 0 0 0 0 0 0 0 0 0 0 0 0 0 0 0 0 0 0 0 0 0 0 0 0 0 0 0 0 0 0 0 0 0

GFSMW_con_mucape_084.txt.gz
CAPE
0 2 2 0 5 4 18 16 13 15 0 13 18 24 13 5 2 12 34 95 71 8 1 0 0 0 0 0 0 0 12 25 17 0 0 0 0 0 0 0 0 0 0
0 0 2 0 0 0 1 0 3 8 1 23 6 30 16 2 61 65 27 58 51 38 7 0 0 0 0 0 8 10 25 22 7 3 3 0 0 0 0 0 2 19 3
0 0 2 0 0 0 1 3 7 3 3 4 12 17 3 4 96 36 52 73 68 68 73 84 94 107 82 58 50 44 30 35 21 18 0 1 0 4 7 3 0 19 5
11 0 0 0 0 0 0 1 1 0 0 1 4 10 11 13 9 8 0 68 66 95 88 81 103 125 99 85 74 71 62 62 51 18 3 12 17 108 7 5 0 2 13
0 15 0 0 0 0 0 4 2 0 0 0 0 0 1 1 3 2 32 9 1 1 7 3 0 4 34 60 55 73 108 124 90 40 45 41 40 38 31 17 7 5 3
31 40 7 0 0 1 0 0 0 0 0 0 0 0 0 0 0 0 0 0 0 0 0 0 0 18 27 24 50 102 92 99 81 66 66 57 41 45 60 21 32 11 8
1 14 40 0 0 0 0 0 0 0 0 0 0 0 0 0 0 0 0 0 0 0 0 0 0 8 22 55 93 112 105 108 119 123 61 66 47 60 53 16 5 0 4
0 2 21 14 4 4 0 0 0 0 0 0 0 0 0 0 0 0 0 0 0 0 0 0 5 14 41 84 150 127 96 107 117 107 125 89 41 52 11 8 19 0 2
2 0 19 47 59 38 9 4 0 0 0 0 0 0 0 0 0 0 0 0 0 0 0 0 0 11 43 65 88 100 78 35 26 113 82 63 71 56 35 24 13 4 23
1 7 19 61 97 129 149 78 1 0 0 0 0 0 0 0 0 0 0 0 0 0 0 0 1 15 22 41 50 76 94 51 20 31 81 133 99 44 23 25 8 6 8
0 0 10 33 62 97 179 186 128 27 0 0 0 0 0 0 0 0 0 0 1 12 29 43 53 71 87 38 43 78 65 9 19 3 65 74 68 65 34 0 0 6 21
0 0 5 27 38 66 86 160 187 183 124 41 11 0 3 9 0 0 9 25 47 60 73 96 111 140 43 29 8 49 28 33 1 1 70 61 65 79 8 3 0 22 15
4 6 14 27 20 41 64 72 72 80 137 193 161 17 2 1 2 9 14 10 30 47 41 63 145 103 35 45 9 21 10 15 37 92 80 61 43 46 13 8 8 6 10
0 4 0 25 27 45 53 48 40 35 54 92 156 177 91 85 101 146 192 127 109 131 139 159 160 161 142 156 55 38 41 49 89 72 42 52 22 0 7 0 2 14 2
2 2 13 4 17 36 49 47 38 36 35 37 110 164 183 192 225 281 282 237 231 241 358 370 493 524 249 146 77 50 45 121 98 83 28 34 3 7 1 3 17 5 1
15 8 1 7 10 19 39 36 46 51 56 51 38 95 155 190 227 252 240 238 344 377 214 402 190 139 133 245 51 169 131 114 46 22 39 20 9 4 7 10 7 0 0
15 9 0 0 1 5 16 27 33 31 55 73 68 70 101 161 198 216 237 347 231 204 180 133 189 40 46 90 190 97 68 52 58 38 15 23 3 10 11 2 0 0 0
0 2 4 0 6 20 24 38 29 25 46 69 96 130 174 189 198 149 246 210 35 21 18 76 141 94 118 98 96 79 68 62 40 6 15 12 15 6 2 3 0 0 0
7 0 0 0 1 25 21 42 45 52 66 106 169 236 173 135 105 63 51 35 60 6 29 41 51 36 30 50 92 35 13 27 25 23 16 3 5 3 6 0 0 0 0
15 0 0 0 4 7 45 82 111 168 219 284 277 188 188 215 271 119 21 13 13 20 22 7 8 12 11 5 8 6 14 9 13 5 1 2 8 4 0 0 0 0 0
28 5 0 3 5 21 74 116 139 144 162 192 207 152 96 29 2 4 4 4 4 4 5 6 5 7 8 6 4 5 5 5 0 2 5 2 0 0 0 0 0 0 0
3 40 62 53 56 99 144 154 187 260 249 151 33 0 0 0 2 4 5 4 4 2 2 1 3 1 4 1 1 0 3 4 1 0 0 0 0 0 0 0 0 0 0
52 71 78 112 191 272 297 220 74 9 0 0 0 0 0 0 0 0 1 1 5 0 0 0 0 0 0 0 0 0 0 0 0 0 0 0 0 0 0 0 0 0 0
78 155 216 230 196 124 43 1 0 0 0 0 0 0 0 0 0 0 0 0 0 0 0 0 0 0 0 0 0 0 0 0 0 0 0 0 0 0 0 0 0 0 0
191 185 140 68 10 0 0 0 0 0 0 0 0 0 0 0 0 0 0 0 0 0 0 0 0 0 0 0 0 0 0 0 0 0 0 0 0 0 0 0 0 0 0
22 12 4 0 0 0 0 0 0 0 0 0 0 0 2 3 0 0 0 0 0 0 0 0 0 0 0 0 0 0 0 0 0 0 0 0 0 0 0 0 0 0 0

GFSMW_con_mucape_087.txt.gz
CAPE
0 10 10 1 0 2 3 3 1 20 10 11 9 17 12 2 7 6 45 91 50 43 56 8 0 11 18 23 29 35 41 40 38 39 15 3 0 0 0 0 0 0 0
0 0 0 1 0 0 0 1 3 9 12 10 3 5 2 6 2 36 27 36 33 31 51 32 9 0 4 2 1 13 24 19 15 18 10 0 0 0 0 0 1 0 0
0 0 0 1 0 0 0 0 0 2 1 5 3 7 9 4 0 1 0 38 31 28 12 23 33 48 27 6 9 3 5 21 10 17 6 0 0 0 3 8 26 12 6
0 0 0 0 0 0 0 0 1 0 2 3 1 6 0 4 13 1 0 2 20 41 27 38 64 74 61 53 19 21 58 63 29 11 12 20 6 15 0 3 8 14 12
7 0 0 1 2 0 0 0 0 0 0 0 0 2 3 8 13 5 1 0 55 70 70 102 117 94 80 54 88 82 100 94 71 31 22 27 13 16 22 24 24 40 28
3 13 0 0 2 1 0 0 0 0 0 0 0 2 0 0 3 31 0 3 1 34 33 70 84 74 74 76 78 87 78 62 42 37 47 42 29 7 16 40 50 24 24
0 32 16 0 0 2 0 0 0 0 0 0 0 0 0 0 0 2 3 0 0 0 5 20 33 36 61 56 87 91 49 25 45 55 63 59 33 38 41 34 26 35 0
0 11 25 25 0 0 0 0 0 0 0 0 0 0 0 0 0 0 0 0 0 0 0 0 4 13 25 48 74 149 130 28 73 71 71 42 76 72 68 46 48 20 17
0 0 24 45 21 3 2 0 0 0 0 0 0 0 0 0 0 0 0 0 0 0 0 0 0 5 10 50 83 172 109 48 59 79 70 36 24 0 32 63 64 12 4
0 4 19 38 66 60 52 28 5 0 0 0 0 0 0 0 0 0 0 0 0 0 0 0 0 0 6 83 101 64 45 50 56 38 57 38 1 0 33 0 34 17 2
0 8 16 32 46 69 93 119 85 15 0 0 0 0 0 0 0 0 0 0 0 0 0 0 0 0 0 0 23 12 60 86 39 49 30 7 8 0 10 35 38 38 0
0 0 16 18 39 55 74 91 126 158 81 15 0 0 0 0 0 0 0 0 0 0 0 1 4 6 9 22 42 58 2 0 47 37 37 33 0 0 0 7 41 33 12
0 0 0 13 33 34 47 59 75 107 147 141 89 24 6 6 9 13 8 6 0 0 1 2 16 43 41 71 13 37 20 22 71 0 31 11 1 26 50 27 16 12 2
0 0 0 1 35 34 37 50 61 67 79 87 91 124 119 70 13 2 2 8 18 25 21 32 46 56 66 204 147 233 207 162 83 16 23 55 43 58 35 13 15 0 0
0 0 3 9 5 45 48 50 50 45 36 30 29 84 126 138 133 113 96 102 109 132 126 97 109 130 210 142 192 170 111 98 128 37 18 50 71 28 3 13 0 11 7
12 26 10 11 6 10 53 48 53 49 36 34 29 35 81 130 148 161 179 171 163 189 181 201 321 325 170 290 40 32 132 83 101 31 72 58 6 3 25 18 1 9 3
9 3 28 27 12 3 13 19 38 48 31 32 40 53 52 50 111 163 167 172 193 174 373 212 120 102 7 65 51 0 4 19 60 149 32 6 22 22 1 20 1 0 0
0 1 11 24 17 3 2 14 14 24 32 34 45 57 73 97 127 170 191 189 160 132 124 42 72 18 42 70 76 58 105 101 84 43 6 27 33 45 0 3 4 6 0
1 10 2 23 35 1 0 10 26 28 40 56 82 115 169 166 153 132 168 174 94 60 79 49 36 12 23 22 37 53 73 81 84 72 13 15 10 7 13 0 5 0 0
0 0 7 26 24 4 0 18 35 50 67 99 140 145 164 138 112 86 72 95 75 76 6 8 16 25 52 46 52 51 63 32 40 52 2 7 8 15 4 3 0 0 0
0 0 0 15 12 0 20 38 55 122 176 212 200 179 122 60 18 14 9 2 0 2 3 13 13 7 12 11 13 8 11 7 7 11 10 6 2 1 0 0 0 0 0
0 0 3 0 0 4 56 97 114 108 108 120 70 34 10 1 0 0 0 0 5 4 5 6 8 4 7 9 10 8 5 2 1 0 0 0 0 0 0 0 0 0 0
0 0 0 0 14 100 141 104 82 108 47 2 0 0 0 0 0 0 0 0 0 0 0 0 0 0 0 2 1 0 0 0 0 0 0 0 0 0 0 0 0 0 0
2 10 12 43 99 138 136 105 0 0 0 0 0 0 0 0 0 0 0 0 0 0 0 0 0 0 0 0 0 0 0 0 0 0 0 0 0 0 0 0 0 0 0
0 1 7 5 1 14 3 0 0 0 0 0 0 0 0 0 0 0 0 0 0 0 0 0 0 0 0 0 0 0 0 0 0 0 0 0 0 0 0 0 0 0 0
115 119 48 16 0 0 0 0 0 0 0 0 0 0 0 1 0 0 0 0 0 0 0 0 0 0 0 0 0 0 0 0 0 0 0 0 0 0 0 0 0 0 0